Probability
0 0 0 0 0 0 0 0 0 0 0 0 0 0 0 0 0 0 0 0 0 0 0 0 0 0 0 0 0 0 0 0 0 0 0 0 0 0 0 0 0 0 0 0 0 0 0 0 0
0 0 0 0 0 0 0 0 0 0 0 0 0 0 0 0 0 0 0 0 0 0 0 0 0 0 0 0 0 0 0 0 0 0 0 0 0 0 0 0 0 0 0 0 0 0 0 0 0
0 0 0 0 0 0 0 0 0 0 0 0 0 0 0 0 0 0 0 0 0 0 0 0 0 0 0 0 0 0 0 0 0 0 0 0 0 0 0 0 0 0 0 0 0 0 0 0 0
0 0 0 0 0 0 0 0 0 0 0 0 0 0 0 0 0 0 0 0 0 0 0 0 0 0 0 0 0 0 0 0 0 0 0 0 0 0 0 0 0 0 0 0 0 0 0 0 0
0 0 0 0 0 0 0 0 0 0 0 0 0 0 0 0 0 0 0 0 0 0 0 0 0 0 0 0 0 0 0 0 0 0 0 0 0 0 0 0 0 0 0 0 0 0 0 0 0
0 0 0 0 0 0 0 0 0 0 0 0 0 0 0 0 0 0 0 0 0 0 0 0 0 0 0 0 0 0 0 0 0 0 0 0 0 0 0 0 0 0 0 0 0 0 0 0 0
0 0 0 0 0 0 0 0 0 0 0 0 0 0 0 0 0 0 0 0 0 0 0 0 0 0 0 0 0 0 0 0 0 0 0 0 0 0 0 0 0 0 0 0 0 0 0 0 0
0 0 0 0 0 0 0 0 0 0 0 0 0 0 0 0 0 0 0 0 0 0 0 0 0 0 0 0 0 0 0 0 0 0 0 0 0 0 0 0 0 0 0 0 0 0 0 0 0
0 0 0 0 0 0 0 0 0 0 0 0 0 0 0 0 0 0 0 0 0 0 0 0 0 0 0 0 0 0 0 0 0 0 0 0 0 0 0 0 0 0 0 0 0 0 0 0 0
0 0 0 0 0 0 0 0 0 0 0 0 0 0 0 0 0 0 0 0 0 0 0 0 0 0 0 0 0 0 0 0 0 0 0 0 0 0 0 0 0 0 0 0 0 0 0 0 0
0 0 0 0 0 0 0 0 0 0 0 0 0 0 0 0 0 0 0 0 0 0 0 0 0 0 0 0 0 0 0 0 0 0 0 0 0 0 0 0 0 0 0 0 0 0 0 0 0
0 0 0 0 0 0 0 0 0 0 0 0 0 0 0 0 0 0 0 0 0 0 0 0 0 0 0 0 0 0 0 0 0 0 0 0 0 0 0 0 0 0 0 0 0 0 0 0 0
0 0 0 0 0 0 0 0 0 0 0 0 0 0 0 0 0 0 0 0 0 0 0 0 0 0 0 0 0 0 0 0 0 0 0 0 0 0 0 0 0 0 0 0 0 0 0 0 0
0 0 0 0 0 0 0 0 0 0 0 0 0 0 0 0 0 0 0 0 0 0 0 0 0 0 0 0 0 0 0 0 0 0 0 0 0 0 0 0 0 0 0 0 0 0 0 0 0
0 0 0 0 0 0 0 0 0 0 0 0 0 0 0 0 0 0 0 0 0 0 0 0 0 0 0 0 0 0 0 0 0 0 0 0 0 0 0 0 0 0 0 0 0 0 0 0 0
0 0 0 0 0 0 0 0 0 0 0 0 0 0 0 0 0 0 0 0 0 0 0 0 0 0 0 0 0 0 0 0 0 0 0 0 0 0 0 0 0 0 0 0 0 0 0 0 0
0 0 0 0 0 0 0 0 0 0 0 0 0 0 0 0 0 0 0 0 0 0 0 0 0 0 0 0 0 0 0 0 0 0 0 0 0 0 0 0 0 0 0 0 0 0 0 0 0
0 0 0 0 0 0 0 0 0 0 0 0 0 0 0 0 0 0 0 0 0 0 0 0 0 0 0 0 0 0 0 0 0 0 0 0 0 0 0 0 0 0 0 0 0 0 0 0 0
0 0 0 0 0 0 0 0 0 0 0 0 0 0 0 0 0 0 0 0 0 0 0 0 0 0 0 0 0 0 0 0 0 0 0 0 0 0 0 0 0 0 0 0 0 0 0 0 0
0 0 0 0 0 0 0 0 0 0 0 0 0 0 0 0 0 0 0 0 0 0 0 0 0 0 0 0 0 0 0 0 0 0 0 0 0 0 0 0 0 0 0 0 0 0 0 0 0
0 0 0 0 0 0 0 0 0 0 0 0 0 0 0 0 0 0 0 0 0 0 0 0 0 0 0 0 0 0 0 0 0 0 0 0 0 0 0 0 0 0 0 0 0 0 0 0 0
0 0 0 0 0 0 0 0 0 0 0 0 0 0 0 0 0 0 0 0 0 0 0 0 0 0 0 0 0 0 0 0 0 0 0 0 0 0 0 0 0 0 0 0 0 0 0 0 0
0 0 0 0 0 0 0 0 0 0 0 0 0 0 0 0 0 0 0 0 0 0 0 0 0 0 0 0 0 0 0 0 0 0 0 0 0 0 0 0 0 0 0 0 0 0 0 0 0
0 0 0 0 0 0 0 0 0 0 0 0 0 0 0 0 0 0 0 0 0 0 0 0 0 0 0 0 0 0 0 0 0 0 0 0 0 0 0 0 0 0 0 0 0 0 0 0 0
0 0 0 0 0 0 0 0 0 0 0 0 0 0 0 0 0 0 0 0 0 0 0 0 0 0 0 0 0 0 0 0 0 0 0 0 0 0 0 0 0 0 0 0 0 0 0 0 0
0 0 0 0 0 0 0 0 0 0 0 0 0 0 0 0 0 0 0 0 0 0 0 0 0 0 0 0 0 0 0 0 0 0 0 0 0 0 0 0 0 0 0 0 0 0 0 0 0
0 0 0 0 0 0 0 0 0 0 0 0 0 0 0 0 0 0 0 0 0 0 0 0 0 0 0 0 0 0 0 0 0 0 0 0 0 0 0 0 0 0 0 0 0 0 0 0 0
0 0 0 0 0 0 0 0 0 0 0 0 0 0 0 0 0 0 0 0 0 0 0 0 0 0 0 0 0 0 0 0 0 0 0 0 0 0 0 0 0 0 0 0 0 0 0 0 0
0 0 0 0 0 0 0 0 0 0 0 0 0 0 0 0 0 0 0 0 0 0 0 0 0 0 0 0 0 0 0 0 0 0 0 0 0 0 0 0 0 0 0 0 0 0 0 0 0
0 0 0 0 0 0 0 0 0 0 0 0 0 0 0 0 0 0 0 0 0 0 0 0 0 0 0 0 0 0 0 0 0 0 0 0 0 0 0 0 0 0 0 0 0 0 0 0 0
Height
5876 5876 5876 5877 5878 5878 5878 5878 5878 5879 5880 5881 5881 5881 5882 5883 5884 5886 5884 5882 5883 5883 5883 5883 5883 5883 5883 5883 5883 5883 5883 5882 5882 5882 5882 5881 5881 5880 5880 5879 5879 5879 5878 5878 5877 5877 5877 5877 5876
5877 5877 5877 5878 5878 5877 5878 5878 5878 5878 5879 5879 5880 5880 5881 5881 5881 5881 5881 5881 5881 5881 5880 5881 5881 5881 5881 5881 5880 5880 5880 5880 5880 5879 5879 5879 5878 5878 5877 5877 5876 5876 5876 5875 5875 5875 5874 5874 5874
5878 5878 5878 5878 5878 5878 5878 5877 5877 5878 5878 5879 5879 5879 5880 5880 5880 5880 5880 5879 5879 5879 5879 5879 5879 5879 5878 5878 5878 5878 5878 5877 5877 5877 5876 5876 5875 5875 5874 5874 5873 5873 5873 5873 5872 5872 5872 5871 5871
5878 5878 5879 5879 5878 5878 5878 5877 5877 5877 5878 5878 5878 5879 5879 5879 5879 5879 5878 5878 5878 5877 5877 5877 5877 5876 5876 5876 5876 5875 5875 5874 5874 5873 5873 5872 5872 5872 5871 5871 5871 5870 5870 5870 5869 5869 5869 5869 5868
5878 5878 5879 5878 5878 5878 5877 5877 5877 5877 5877 5877 5877 5877 5878 5878 5877 5877 5877 5876 5876 5875 5875 5875 5875 5874 5874 5873 5873 5872 5872 5871 5871 5870 5870 5869 5869 5868 5868 5868 5867 5867 5867 5867 5866 5866 5866 5865 5865
5879 5879 5879 5878 5878 5878 5877 5877 5876 5876 5876 5876 5876 5876 5876 5876 5876 5875 5875 5874 5874 5873 5873 5873 5872 5872 5871 5870 5870 5869 5869 5868 5867 5867 5866 5866 5866 5865 5865 5864 5864 5864 5863 5863 5863 5863 5862 5862 5862
5879 5878 5878 5878 5877 5877 5877 5876 5876 5875 5875 5875 5874 5874 5874 5874 5873 5873 5872 5872 5871 5871 5870 5870 5869 5868 5868 5867 5866 5866 5865 5864 5864 5863 5863 5862 5862 5861 5861 5861 5860 5860 5860 5860 5859 5859 5859 5858 5858
5877 5878 5877 5877 5877 5877 5876 5875 5874 5874 5874 5873 5873 5872 5871 5871 5870 5870 5869 5869 5868 5868 5867 5866 5865 5865 5864 5863 5863 5862 5861 5860 5860 5859 5859 5858 5858 5857 5857 5857 5856 5856 5856 5856 5855 5855 5855 5855 5854
5875 5876 5875 5875 5875 5875 5874 5874 5873 5872 5872 5871 5870 5870 5869 5868 5867 5867 5866 5866 5865 5864 5863 5863 5862 5861 5860 5860 5859 5858 5857 5856 5856 5855 5854 5854 5854 5853 5853 5853 5852 5852 5852 5851 5851 5851 5850 5850 5850
5873 5873 5873 5873 5873 5873 5872 5872 5871 5871 5870 5869 5868 5867 5866 5865 5864 5864 5863 5862 5861 5861 5860 5859 5858 5857 5856 5855 5854 5853 5853 5852 5851 5850 5850 5849 5849 5848 5848 5848 5848 5847 5847 5847 5846 5846 5846 5845 5845
5869 5870 5870 5870 5870 5870 5869 5869 5868 5868 5867 5866 5865 5864 5863 5862 5861 5860 5859 5859 5858 5857 5856 5855 5854 5853 5852 5851 5850 5849 5848 5847 5846 5846 5845 5844 5844 5843 5843 5842 5842 5842 5841 5841 5841 5840 5840 5840 5839
5866 5865 5866 5866 5866 5866 5866 5865 5865 5864 5864 5863 5861 5860 5859 5858 5857 5856 5855 5855 5854 5853 5852 5851 5850 5848 5847 5846 5845 5844 5843 5842 5841 5840 5840 5839 5838 5837 5837 5836 5836 5836 5835 5835 5834 5834 5833 5833 5833
5861 5861 5861 5861 5862 5862 5862 5861 5860 5860 5859 5858 5857 5856 5855 5853 5853 5852 5851 5850 5849 5848 5847 5846 5845 5844 5842 5841 5840 5839 5838 5837 5836 5835 5834 5833 5832 5831 5831 5830 5829 5829 5828 5827 5827 5827 5826 5825 5825
5857 5857 5857 5857 5857 5857 5857 5856 5856 5855 5854 5853 5852 5851 5850 5848 5847 5846 5846 5845 5844 5843 5842 5841 5840 5839 5837 5836 5835 5834 5833 5831 5830 5829 5828 5827 5826 5825 5824 5823 5822 5821 5820 5820 5819 5818 5818 5817 5816
5852 5852 5852 5852 5852 5852 5852 5851 5850 5850 5848 5847 5846 5845 5844 5843 5842 5841 5841 5840 5839 5838 5837 5836 5835 5834 5832 5831 5830 5828 5827 5825 5824 5823 5821 5820 5819 5818 5817 5816 5814 5813 5812 5811 5810 5809 5808 5808 5806
5847 5847 5846 5846 5846 5846 5848 5846 5844 5844 5843 5842 5841 5840 5839 5838 5838 5837 5836 5835 5834 5833 5832 5831 5829 5828 5827 5826 5824 5823 5821 5819 5818 5816 5815 5813 5812 5810 5809 5808 5806 5805 5803 5802 5801 5800 5798 5797 5796
5842 5842 5841 5841 5841 5841 5841 5839 5838 5839 5837 5837 5836 5835 5834 5834 5833 5832 5831 5830 5829 5828 5827 5825 5824 5823 5822 5820 5819 5817 5815 5813 5812 5810 5808 5806 5805 5803 5801 5800 5798 5796 5794 5793 5791 5789 5788 5786 5784
5837 5836 5835 5835 5836 5836 5835 5834 5833 5833 5832 5831 5831 5830 5830 5829 5828 5827 5826 5825 5824 5823 5822 5820 5819 5817 5816 5814 5813 5811 5809 5807 5805 5803 5801 5799 5797 5795 5793 5791 5789 5787 5785 5783 5781 5779 5777 5775 5773
5831 5831 5830 5830 5830 5830 5829 5829 5828 5828 5827 5826 5826 5825 5825 5824 5823 5822 5821 5820 5819 5818 5816 5815 5813 5812 5810 5808 5806 5804 5802 5800 5797 5795 5793 5791 5789 5786 5784 5782 5780 5778 5776 5773 5771 5768 5766 5764 5761
5825 5825 5825 5825 5825 5825 5824 5824 5823 5822 5822 5822 5821 5820 5820 5819 5818 5817 5816 5815 5814 5812 5811 5809 5807 5805 5803 5801 5799 5796 5794 5792 5789 5787 5785 5782 5780 5778 5775 5773 5771 5768 5766 5763 5760 5757 5754 5752 5749
5819 5820 5820 5820 5820 5820 5820 5819 5818 5817 5817 5817 5816 5815 5815 5814 5813 5812 5811 5809 5808 5806 5804 5802 5800 5798 5796 5794 5791 5788 5786 5784 5782 5779 5777 5774 5772 5769 5767 5764 5761 5758 5756 5753 5749 5746 5743 5740 5737
5814 5814 5815 5815 5815 5815 5815 5815 5814 5813 5812 5812 5811 5810 5809 5809 5807 5806 5805 5803 5802 5800 5798 5796 5793 5791 5789 5786 5784 5781 5779 5776 5774 5771 5769 5766 5763 5760 5758 5755 5752 5748 5745 5742 5738 5735 5731 5728 5724
5808 5809 5810 5810 5810 5810 5810 5809 5810 5808 5807 5807 5806 5805 5804 5803 5802 5800 5799 5797 5795 5793 5791 5789 5786 5784 5781 5779 5776 5774 5771 5769 5766 5763 5760 5757 5755 5751 5748 5745 5742 5738 5735 5731 5727 5723 5718 5714 5710
5803 5804 5804 5804 5804 5806 5805 5805 5805 5804 5802 5801 5800 5799 5798 5797 5796 5794 5792 5790 5789 5787 5784 5782 5780 5777 5774 5772 5769 5766 5764 5761 5758 5755 5752 5749 5745 5742 5738 5735 5731 5727 5723 5719 5714 5710 5705 5700 5695
5797 5798 5799 5799 5799 5800 5800 5799 5800 5799 5797 5796 5795 5793 5792 5791 5789 5787 5786 5784 5782 5780 5777 5775 5772 5770 5767 5764 5761 5759 5756 5753 5750 5746 5743 5740 5736 5732 5728 5724 5720 5715 5710 5705 5700 5695 5690 5684 5678
5791 5792 5794 5794 5794 5794 5794 5794 5795 5793 5791 5790 5789 5787 5786 5784 5782 5781 5779 5777 5774 5772 5770 5767 5765 5762 5759 5756 5753 5750 5747 5744 5741 5737 5733 5729 5725 5721 5716 5712 5707 5701 5696 5690 5684 5679 5673 5666 5660
5785 5786 5787 5787 5787 5788 5788 5789 5788 5787 5785 5783 5782 5781 5779 5777 5775 5773 5771 5769 5767 5764 5762 5759 5757 5754 5751 5748 5744 5741 5738 5734 5731 5727 5722 5718 5714 5709 5704 5698 5692 5686 5680 5673 5667 5661 5654 5647 5639
5779 5780 5780 5780 5781 5781 5783 5783 5782 5780 5779 5777 5775 5774 5772 5770 5768 5766 5763 5761 5758 5756 5754 5751 5748 5745 5742 5738 5735 5731 5728 5724 5720 5715 5711 5706 5700 5695 5689 5683 5677 5670 5663 5655 5648 5640 5633 5624 5617
5773 5774 5774 5774 5774 5775 5775 5779 5776 5773 5772 5770 5768 5766 5765 5763 5760 5758 5755 5752 5750 5747 5745 5742 5739 5735 5732 5729 5725 5721 5717 5712 5708 5703 5697 5692 5686 5680 5673 5666 5659 5651 5643 5635 5626 5618 5610 5601 5593
5766 5767 5767 5768 5768 5767 5767 5772 5768 5766 5763 5762 5760 5759 5757 5755 5752 5749 5746 5743 5741 5738 5735 5732 5728 5725 5722 5718 5714 5709 5705 5700 5695 5689 5683 5677 5670 5663 5656 5648 5640 5631 5622 5613 5604 5595 5586 5576 5567
Wind_Speed
7 8 7 7 6 5 5 6 7 8 9 9 10 10 11 11 12 13 13 14 15 15 15 15 15 15 16 16 16 16 17 17 17 17 17 17 17 18 18 18 18 18 19 18 18 18 18 18 18
7 8 8 7 7 6 5 5 5 6 7 8 8 9 10 11 12 13 13 14 14 15 14 14 15 15 15 15 16 16 16 17 17 17 18 18 18 18 19 19 19 19 19 18 18 18 18 18 17
7 7 7 6 6 5 5 4 4 5 5 6 7 8 9 10 11 12 13 13 14 14 14 14 14 15 15 16 16 16 17 17 17 18 18 18 18 19 19 19 19 19 19 18 18 18 18 18 18
5 5 5 4 4 4 4 4 4 4 4 5 6 7 8 10 11 11 12 13 13 14 14 14 15 15 16 16 17 17 17 18 18 18 18 19 18 18 18 18 18 18 18 18 18 18 18 18 18
4 4 3 3 2 2 2 2 2 2 3 4 6 7 8 9 11 12 13 14 14 15 15 15 16 16 17 17 18 18 18 19 19 19 19 19 19 19 18 18 18 18 18 18 18 19 19 19 19
3 3 2 1 1 1 1 2 2 3 4 5 6 8 9 10 11 13 14 15 16 16 16 17 17 18 18 19 19 19 20 20 20 20 20 20 20 19 19 19 19 19 19 19 19 19 19 19 19
3 3 2 2 1 2 2 3 3 4 5 6 8 10 11 11 12 14 16 17 17 18 18 18 19 20 20 20 21 21 21 21 21 21 21 21 21 20 20 20 20 20 20 20 20 20 20 19 20
4 4 3 3 2 2 3 4 4 5 6 7 8 10 12 13 14 15 16 17 18 19 20 20 20 21 21 22 22 23 23 23 23 23 22 22 22 22 22 22 22 22 22 21 21 21 21 21 21
7 6 5 4 4 4 5 5 5 6 7 7 7 9 12 14 15 15 16 17 18 19 20 21 21 22 22 23 23 24 24 24 24 24 24 24 24 24 24 24 24 24 24 23 23 23 23 23 23
10 10 9 8 8 8 7 7 8 9 9 9 9 11 13 14 16 16 17 17 18 19 20 21 22 23 23 24 24 25 25 26 26 26 25 25 25 26 26 26 26 26 26 26 26 26 26 26 26
14 14 13 12 11 12 12 11 12 12 13 12 13 14 15 16 17 18 18 19 19 20 21 22 23 24 24 25 25 26 26 27 27 27 27 27 27 28 28 28 29 29 29 30 30 30 30 30 30
17 17 16 16 15 15 15 16 16 16 16 16 17 18 18 19 19 20 20 20 21 21 22 22 23 24 24 25 26 27 27 28 28 28 29 29 30 30 31 31 32 32 32 33 34 34 34 34 34
19 20 19 19 18 18 19 19 19 20 19 20 20 21 21 22 22 22 22 22 22 23 23 23 23 24 25 26 27 27 28 28 29 30 30 31 32 32 33 34 34 35 36 36 37 37 38 38 39
21 22 21 21 20 20 21 21 21 22 21 21 22 22 23 23 23 23 23 23 23 23 23 23 23 24 25 26 27 27 28 29 30 30 31 32 33 34 34 35 36 37 38 39 39 40 41 41 42
22 22 23 22 22 21 22 23 23 22 22 22 22 22 22 22 22 22 22 22 22 22 22 22 23 23 23 24 25 26 27 28 29 30 31 32 33 34 35 35 36 38 39 39 40 41 42 43 44
22 23 23 23 22 22 22 23 23 21 21 21 21 21 20 20 20 20 20 20 20 20 21 21 22 22 23 24 25 26 27 28 29 30 31 32 33 34 35 36 37 38 39 40 41 42 43 44 46
22 22 23 23 22 21 21 23 22 20 20 20 20 19 19 19 18 18 19 19 19 20 20 21 22 23 23 24 25 26 27 28 29 30 32 33 34 35 36 36 37 39 39 40 41 42 44 45 46
21 22 22 23 21 20 21 21 21 19 19 20 19 19 19 18 18 18 18 19 19 20 21 22 23 24 24 25 26 27 28 29 31 32 33 33 34 35 36 36 38 39 39 41 42 43 44 45 47
22 21 22 22 21 20 21 21 21 19 19 19 19 19 19 19 19 19 19 20 20 21 22 23 25 26 27 28 29 30 31 32 33 33 34 35 35 36 36 37 38 39 40 41 43 44 45 46 48
22 21 21 21 20 20 20 20 20 20 19 19 19 19 19 19 20 20 21 22 23 24 25 26 27 28 29 30 31 32 32 32 33 33 33 34 34 34 35 36 37 38 39 41 43 44 45 46 48
22 21 21 20 20 19 19 20 20 20 20 19 19 19 19 20 21 22 23 24 25 26 27 28 29 30 30 31 31 31 30 30 31 31 32 32 33 34 35 36 38 39 40 41 43 45 46 47 49
22 21 21 21 20 19 20 20 20 20 20 20 20 20 21 21 22 23 25 26 27 28 29 30 30 31 31 30 30 30 30 30 31 31 32 33 34 35 36 37 38 40 41 43 45 47 48 50 52
22 22 21 21 21 20 20 20 19 20 20 21 21 22 22 23 24 25 26 27 28 29 30 30 31 31 30 30 30 30 30 31 32 33 33 34 35 37 38 39 41 43 45 46 48 51 53 54 56
22 23 23 22 21 21 20 20 20 20 21 22 22 23 23 24 25 26 27 28 29 30 30 30 30 30 30 30 30 31 31 32 33 34 35 36 37 39 41 43 44 46 48 51 53 55 57 60 62
23 23 23 23 22 21 20 21 20 20 22 23 23 24 25 26 27 28 28 29 30 30 30 30 31 31 31 31 31 32 33 34 34 35 37 38 40 42 44 46 48 51 54 56 58 61 63 65 67
23 23 23 23 23 21 21 21 20 21 22 23 24 25 26 27 28 29 30 30 30 30 31 31 32 32 32 32 33 34 35 36 38 39 41 43 44 47 49 51 54 56 59 61 64 66 68 70 73
24 23 23 24 24 23 22 21 21 22 23 25 26 27 27 29 30 31 31 31 31 32 32 33 33 33 34 35 36 37 38 40 41 43 45 47 49 51 54 56 59 62 64 67 69 71 73 76 77
24 23 24 24 25 24 23 22 22 23 25 26 27 28 29 30 32 32 33 33 33 34 34 35 35 36 36 37 39 40 41 43 45 47 49 51 54 56 59 62 64 66 69 72 74 76 78 80 81
25 24 25 26 26 26 26 23 23 25 26 28 29 30 31 32 33 34 35 35 36 36 36 37 37 38 39 40 42 43 45 46 49 51 53 56 58 61 64 66 69 71 74 77 79 80 82 83 84
26 25 26 27 28 28 28 26 25 27 29 30 31 32 33 34 35 36 37 37 38 38 38 38 39 40 41 43 45 46 48 50 52 55 58 60 63 66 68 71 73 76 78 80 82 83 85 86 87
Wind_Direction
95 97 102 110 128 145 171 199 212 220 228 235 242 248 252 252 251 253 252 251 253 255 256 257 259 262 263 265 266 267 267 268 268 268 268 268 267 266 265 264 262 260 259 258 257 257 257 258 259
99 98 100 107 117 129 144 170 191 207 221 233 242 249 253 254 256 256 255 255 256 257 258 258 259 261 262 264 265 267 269 270 270 270 270 269 268 267 265 263 261 260 258 257 256 256 257 258 260
106 101 104 107 114 123 134 150 171 190 208 223 236 246 252 257 259 258 259 260 259 259 259 260 261 262 264 266 267 268 270 272 273 273 272 271 270 269 266 263 261 259 258 256 256 255 256 257 259
112 108 109 112 118 124 132 144 158 180 203 221 234 244 251 256 259 261 262 263 263 263 263 264 265 266 267 268 269 271 272 273 275 275 274 274 272 269 266 263 261 259 258 256 256 256 257 257 259
124 119 123 132 145 146 164 168 183 207 221 231 242 250 254 258 262 263 264 265 265 266 267 268 269 269 269 270 271 272 273 274 274 274 273 273 272 269 265 263 261 260 258 257 257 258 258 259 260
154 149 147 161 205 232 239 240 241 247 253 255 258 262 261 261 262 264 265 266 266 267 269 270 270 270 270 270 271 272 272 273 273 273 273 272 271 268 265 263 262 261 260 259 259 259 259 260 261
194 190 195 212 243 266 273 273 269 270 267 265 266 269 270 266 263 262 263 265 266 267 268 269 269 270 270 271 271 271 272 273 273 273 273 272 271 268 265 263 262 262 262 261 261 260 260 260 262
221 223 227 241 259 267 270 275 278 276 274 272 270 270 274 273 267 264 264 266 267 267 267 267 267 268 269 270 271 272 272 273 273 273 273 272 270 268 265 263 263 262 262 261 261 260 260 261 262
237 239 241 250 261 266 267 271 275 276 276 279 275 270 271 274 274 273 271 270 269 268 267 267 267 268 269 270 271 272 272 272 273 273 272 271 269 268 266 264 264 264 263 262 261 261 261 262 263
245 247 249 254 262 267 269 271 275 277 279 280 276 273 274 276 278 278 277 275 273 272 271 269 269 269 270 270 271 271 272 272 272 272 272 271 270 268 267 265 264 264 264 263 263 263 263 264 264
250 254 256 258 263 268 272 273 275 278 281 282 279 277 276 277 278 279 279 278 277 276 275 273 273 272 272 272 271 271 272 272 272 272 272 272 271 269 268 267 266 265 265 265 265 265 265 265 266
254 257 260 263 265 269 274 276 278 279 282 283 280 279 278 277 278 279 279 279 279 278 277 276 275 274 273 273 273 272 272 272 273 273 273 272 272 271 270 269 268 268 267 267 267 267 267 267 268
257 260 262 265 268 271 275 277 279 281 281 281 280 279 278 279 279 279 278 278 279 278 277 277 275 274 273 273 273 273 273 274 274 274 273 273 273 272 272 271 271 270 270 269 269 269 269 269 269
259 261 264 267 270 272 276 278 278 279 281 280 279 279 279 279 280 279 278 278 278 279 279 278 277 277 276 275 275 275 275 275 276 275 275 275 274 274 274 274 273 272 272 271 271 271 271 271 271
260 263 266 268 270 273 277 278 279 280 280 280 279 280 280 280 280 280 281 280 281 281 281 281 281 281 280 280 280 279 279 278 278 277 277 277 277 276 276 276 275 274 274 274 274 273 273 273 272
262 265 268 270 272 275 277 279 280 281 279 278 279 280 280 280 281 281 282 283 283 284 284 285 285 285 285 284 284 283 283 282 281 281 280 280 280 279 279 278 277 276 276 276 275 274 274 273 273
262 265 269 271 273 276 277 278 280 279 277 278 280 281 281 282 282 284 285 286 287 287 288 288 289 289 290 289 288 287 287 286 285 284 284 283 283 282 281 280 279 279 278 278 277 276 275 275 274
261 265 268 272 274 275 276 276 278 278 278 279 280 281 282 284 286 287 289 289 290 290 291 291 292 292 292 292 291 290 289 288 287 286 285 284 284 283 283 282 281 281 280 279 279 278 277 276 276
261 264 268 271 274 274 275 275 277 277 277 279 280 281 284 286 288 290 291 292 292 292 292 293 293 293 293 292 291 290 289 289 288 287 286 285 285 284 284 283 283 283 282 282 282 281 280 280 279
260 264 267 271 273 272 272 273 275 276 277 278 280 282 285 287 290 291 292 292 292 292 293 294 294 294 293 292 292 291 290 289 289 288 287 287 286 286 285 285 285 285 284 284 283 282 282 281 281
259 263 266 269 270 269 270 271 273 275 276 278 280 283 285 288 290 291 290 291 291 292 293 294 294 294 294 293 293 292 291 290 289 289 288 287 287 287 287 287 287 287 286 286 285 285 284 284 283
258 261 264 266 267 267 268 268 270 273 275 278 281 283 285 287 288 289 289 290 291 292 294 295 295 294 294 293 293 292 292 291 290 290 290 289 288 288 288 288 289 289 289 288 287 287 287 287 286
256 259 262 263 265 266 266 267 267 271 275 278 281 282 284 286 287 288 289 290 291 292 293 294 294 293 293 292 291 291 291 291 291 291 290 290 290 290 291 291 291 291 291 290 290 289 289 288 288
255 258 260 262 264 263 263 266 268 271 274 277 280 282 284 286 287 288 289 290 291 291 292 292 292 292 292 291 291 291 292 292 291 291 291 291 292 292 293 293 293 292 292 292 291 291 290 290 289
254 257 260 262 262 262 263 266 270 272 275 278 280 283 285 287 288 289 290 291 291 291 291 292 292 291 291 291 291 291 292 292 291 291 291 292 292 293 293 293 293 293 293 293 292 292 291 290 289
253 256 260 263 263 262 263 268 272 274 276 279 281 284 286 287 289 291 292 291 290 291 292 292 291 291 291 291 290 290 291 291 292 292 292 293 294 294 294 294 294 294 294 294 293 293 292 291 291
253 256 260 263 264 265 266 270 273 275 278 281 283 285 287 288 290 291 291 290 290 291 291 291 291 291 290 290 290 290 291 292 293 293 294 295 295 295 295 296 296 296 295 295 294 294 293 292 291
253 256 260 263 267 268 268 272 275 276 279 281 283 285 287 289 290 291 290 290 290 291 291 291 290 290 289 289 290 291 292 293 294 294 295 296 296 297 297 297 297 297 297 296 296 295 294 294 293
254 257 260 264 268 272 273 274 277 279 280 281 282 284 287 290 291 291 290 289 290 291 291 291 290 290 290 290 291 292 293 294 295 296 297 298 298 298 299 299 299 299 298 298 297 297 296 295 294
254 258 262 266 270 273 276 279 280 280 280 281 282 285 288 290 291 290 289 289 290 291 291 291 291 291 291 291 293 294 295 296 297 298 299 299 300 300 300 301 301 300 300 299 299 298 297 296 295